Temperature
19 18 18 18 18 17 17 17 17 17 16 16 16 16 16 16 15 15 15 15 15 15 15 15 15 14 14 14 14 14 14 14 14 14 14 14 13 13 13 13 13 13 13
18 18 18 18 17 17 17 17 17 17 16 16 16 16 16 15 15 15 15 15 15 15 15 15 15 14 14 14 14 14 14 14 14 14 14 13 13 13 13 13 13 13 13
17 18 18 18 17 17 17 17 17 16 16 16 16 16 15 15 15 15 15 15 15 15 15 15 14 14 14 14 14 14 14 14 14 14 14 13 13 13 13 13 13 13 13
17 17 17 17 17 17 17 17 16 16 16 16 16 16 16 15 15 15 15 15 15 15 15 14 14 14 14 14 14 14 14 14 14 14 14 14 13 13 13 12 13 13 13
16 17 17 17 17 17 17 16 16 16 16 16 16 15 15 15 15 15 15 15 15 15 15 14 14 14 14 14 14 14 14 14 14 14 14 14 13 13 13 13 13 13 12
16 17 17 17 17 17 16 16 16 16 16 16 15 15 15 15 15 15 15 15 15 15 15 14 14 14 14 14 14 14 14 14 14 14 14 14 14 14 13 13 13 12 12
16 16 16 17 17 16 16 16 16 16 16 16 15 15 15 15 15 15 15 15 15 15 15 15 15 14 14 14 14 14 14 14 14 14 14 14 13 13 13 13 13 12 12
16 16 16 16 16 16 16 16 16 16 16 15 15 15 15 15 15 15 15 14 14 14 15 15 15 14 14 14 14 14 14 14 14 14 14 13 13 13 13 13 13 13 12
16 16 16 16 16 16 16 16 16 16 16 15 15 15 15 15 15 14 14 14 14 14 14 14 14 14 14 14 14 14 14 14 14 14 13 13 13 13 13 13 13 13 13
16 16 16 16 16 16 16 16 16 16 15 15 15 15 14 14 14 14 14 14 14 14 14 14 14 14 14 14 14 14 14 14 14 14 13 13 13 13 13 13 13 13 13
16 16 16 16 16 16 16 16 16 15 15 15 15 14 14 14 14 14 14 14 14 14 14 14 14 14 14 14 14 13 13 13 13 13 13 13 13 13 13 13 13 13 13
16 16 16 16 16 15 15 15 15 15 15 15 14 14 14 14 14 14 13 13 13 13 13 13 13 13 13 13 13 13 13 13 13 13 13 13 13 13 13 13 13 13 12
16 16 15 15 15 15 15 15 15 15 15 14 14 14 14 14 14 14 13 13 13 13 13 13 13 13 13 13 13 13 13 13 13 13 13 13 13 13 13 13 13 12 12
15 15 15 15 15 15 15 15 15 14 14 14 14 14 14 14 14 13 13 13 13 13 13 13 13 13 13 13 13 13 13 13 13 13 13 13 12 12 12 12 12 12 12
15 15 15 15 14 14 14 14 14 14 14 14 13 13 13 13 13 13 13 13 13 13 13 13 13 13 13 13 13 13 13 13 13 13 13 13 12 12 12 12 12 12 12
14 14 14 14 14 14 14 14 14 14 13 13 13 13 13 13 13 13 13 13 12 12 12 12 12 12 12 12 12 12 12 12 12 12 12 12 12 12 12 12 12 12 12
14 14 14 14 14 14 14 14 14 13 13 13 13 13 13 13 13 12 12 12 12 12 12 12 12 12 12 12 12 12 12 12 12 12 12 12 12 12 12 12 12 12 12
14 14 14 14 14 14 14 13 13 13 13 13 12 12 12 12 12 12 12 12 12 12 12 12 12 12 12 12 12 12 12 12 12 12 12 12 12 12 12 12 11 11 11
14 14 14 14 14 13 13 13 13 13 13 13 12 12 12 12 11 11 12 12 12 12 12 11 11 11 11 11 11 11 11 11 11 11 11 11 12 12 11 11 11 11 11
13 13 13 13 13 13 13 13 13 12 12 12 12 12 12 11 11 11 11 11 11 11 11 11 11 11 11 11 11 11 11 11 11 11 11 11 11 11 11 11 11 11 11
13 13 13 13 13 13 12 12 12 12 12 12 11 11 11 11 11 11 11 11 11 11 11 11 11 11 11 11 11 11 11 11 11 11 11 11 11 11 11 11 11 11 10
12 12 12 12 12 12 12 12 12 12 11 11 11 11 11 11 10 10 11 10 10 10 11 11 11 10 10 10 10 10 10 10 10 10 10 10 10 10 10 10 10 10 10
12 12 12 12 12 12 12 11 11 11 11 11 10 10 10 10 10 10 10 10 10 10 10 10 10 10 10 10 10 10 10 10 10 10 10 10 10 10 10 10 10 9 9
11 11 11 11 11 11 11 11 11 11 10 10 10 10 10 10 10 10 9 10 10 10 9 10 10 10 10 10 10 10 10 10 10 10 9 9 9 9 9 9 9 9 9
11 11 10 10 10 11 10 10 10 10 10 10 10 10 10 10 9 9 9 9 9 9 9 9 9 9 9 9 9 9 9 9 9 9 9 9 9 9 9 9 9 8 8
10 10 10 10 10 10 10 10 10 10 10 10 9 9 9 9 9 9 9 9 9 9 9 9 9 9 9 9 9 9 9 9 9 8 8 8 8 8 8 8 8 8 8
Wind_Speed
3 2 3 3 3 3 3 3 3 2 3 2 2 2 1 1 2 2 3 4 4 5 6 4 4 4 3 3 4 4 4 3 2 3 3 4 4 4 4 4 4 5 5
1 1 3 3 3 4 4 3 3 3 3 2 2 2 2 1 1 1 3 3 3 4 5 5 3 3 3 4 3 3 3 1 1 2 2 2 4 4 4 3 3 4 4
3 2 3 3 3 4 5 5 4 4 3 3 3 3 3 3 2 2 2 1 2 3 4 5 4 4 4 4 3 3 4 2 0 1 3 3 1 1 3 3 3 3 3
1 1 2 2 3 4 4 4 4 4 3 4 5 5 3 2 1 1 0 1 2 2 3 4 4 4 3 3 3 3 2 3 2 1 2 2 3 2 1 3 3 3 2
1 1 2 3 2 3 3 3 3 3 3 4 5 5 3 2 1 1 2 2 2 2 2 3 4 3 3 3 3 3 2 2 3 2 2 2 2 2 2 0 2 3 2
1 1 1 1 1 1 2 3 4 3 3 4 4 5 4 3 3 2 1 1 1 1 1 2 2 3 2 3 3 3 3 2 2 2 2 2 2 2 2 2 1 1 2
1 1 0 1 1 2 3 3 4 3 3 4 4 4 4 4 4 3 2 1 0 0 1 0 1 1 2 3 3 2 2 3 3 3 2 2 2 2 3 3 1 0 1
1 2 2 3 3 3 3 4 5 4 4 4 4 3 4 3 3 3 2 2 2 2 1 1 1 1 1 2 2 2 2 2 2 3 2 2 2 2 3 3 3 1 1
2 2 2 2 3 4 4 6 6 4 4 4 3 3 3 3 3 3 2 2 1 1 1 1 1 1 1 1 2 1 1 2 2 2 2 2 1 2 2 3 4 4 2
2 2 2 2 3 4 3 4 5 5 4 4 4 3 3 3 3 3 2 2 1 1 1 1 1 1 1 1 2 1 0 2 1 1 2 2 1 2 2 2 2 2 3
3 3 3 2 2 1 2 3 4 4 4 4 3 3 3 2 2 2 3 2 2 1 2 2 2 1 1 1 1 1 1 2 1 1 2 2 2 2 2 2 3 2 3
3 2 2 1 1 1 2 3 3 3 3 4 4 3 3 3 2 3 3 2 2 2 2 2 2 2 1 1 1 1 1 2 2 1 2 2 2 2 2 3 3 3 2
2 1 0 1 1 1 2 2 3 3 3 3 3 3 3 3 3 3 3 3 3 2 2 2 2 2 2 2 1 1 1 1 2 2 2 2 3 2 2 3 2 2 2
1 1 1 1 1 1 2 3 3 3 3 3 3 4 4 4 4 3 3 3 3 3 2 2 2 2 2 2 2 1 1 1 1 1 2 2 3 4 3 3 3 3 3
1 2 2 2 1 1 1 2 2 3 3 3 3 4 3 3 3 2 2 2 3 3 2 2 1 1 1 2 2 2 2 1 1 0 1 1 2 4 4 3 4 4 3
3 3 2 2 2 2 2 2 2 2 3 3 4 3 2 3 3 3 2 2 2 2 2 2 2 1 2 2 3 3 2 2 1 1 1 1 1 2 2 4 5 6 6
3 3 3 3 3 3 3 3 2 2 3 3 3 3 3 3 4 3 3 3 3 2 2 2 2 3 3 3 3 4 3 2 2 2 1 1 1 1 1 2 3 4 5
3 3 3 2 2 2 2 2 2 2 2 2 2 3 3 3 3 3 3 3 2 3 3 2 2 2 3 3 3 4 3 2 2 2 3 3 2 2 2 2 2 1 2
4 3 3 2 1 1 2 2 1 2 2 2 3 3 3 3 3 3 3 3 2 2 2 2 2 2 3 3 3 3 2 2 2 2 2 3 3 3 4 3 3 2 2
2 2 1 1 1 1 1 2 2 2 3 4 4 3 3 4 4 4 3 2 3 3 2 2 2 3 3 3 3 3 2 2 2 2 2 4 4 4 5 4 4 4 3
1 1 1 1 2 2 2 2 2 4 4 3 2 3 3 4 4 3 3 2 2 2 2 2 2 2 3 4 4 3 3 3 3 3 3 3 4 4 5 5 5 5 4
0 0 1 2 2 2 3 3 4 4 2 1 2 2 2 3 3 3 3 2 3 3 2 1 2 2 3 3 4 4 4 4 4 4 4 4 4 4 4 4 4 5 4
1 1 1 1 2 2 3 4 4 2 2 2 2 3 2 2 2 3 4 3 3 3 2 2 2 3 2 2 4 5 4 4 3 4 5 5 4 3 3 3 4 3 3
2 1 1 1 2 2 2 3 2 1 2 2 2 2 2 2 2 2 3 3 3 3 3 3 3 3 2 2 2 2 2 3 2 2 3 3 2 2 2 1 2 2 3
2 2 2 2 3 3 3 2 2 2 2 2 2 2 2 3 2 2 2 3 4 4 4 4 4 3 4 4 4 2 2 2 2 1 1 0 1 1 1 1 2 2 2
2 2 2 2 3 2 3 3 2 2 3 2 2 2 2 2 2 2 1 1 2 3 3 3 3 4 4 3 3 3 2 2 3 2 1 2 2 3 3 3 2 2 3
Wind_Direction
246 191 164 153 145 138 143 152 146 134 119 107 106 95 80 49 38 50 81 107 126 132 126 124 118 116 115 120 118 108 90 77 82 80 53 32 41 45 37 38 42 35 38
264 182 163 159 166 167 165 162 165 156 158 153 141 128 115 89 66 40 60 76 112 134 139 140 134 127 119 116 123 118 107 93 74 102 93 37 14 18 25 29 39 25 29
213 207 182 178 170 178 181 177 179 167 157 131 105 84 64 46 32 25 24 26 99 132 144 148 142 142 143 153 161 150 135 144 90 82 131 133 179 341 357 13 26 23 26
262 191 190 185 191 200 189 173 169 159 147 137 134 130 130 145 222 234 242 28 72 104 139 151 146 150 153 161 179 166 150 145 153 91 64 121 148 140 15 348 1 16 22
244 215 211 209 199 183 172 172 158 152 149 147 149 142 130 143 106 74 73 50 39 75 112 144 152 162 168 170 170 161 162 159 160 159 137 97 77 107 146 249 330 353 352
243 246 245 182 156 146 150 153 151 154 154 148 148 148 145 136 118 105 96 49 25 26 56 127 155 175 177 179 182 178 176 176 167 167 161 158 154 164 153 175 245 314 325
200 220 221 215 203 174 168 159 156 160 163 156 159 163 161 158 163 170 173 160 109 5 317 104 178 188 195 188 177 170 185 183 179 184 185 179 179 161 152 148 167 197 319
218 235 232 215 213 204 187 169 168 169 164 167 174 173 166 164 176 184 177 183 197 213 214 148 139 168 175 176 172 179 197 184 190 194 180 173 186 173 165 160 152 132 356
230 235 257 236 214 207 202 185 173 164 165 169 164 167 169 171 180 186 175 179 201 202 161 135 102 87 127 137 147 165 199 177 191 190 176 170 181 170 169 158 159 155 172
252 239 241 248 232 211 204 181 169 167 167 164 172 174 183 189 182 166 168 180 198 184 152 139 138 109 91 111 125 117 162 152 173 167 152 158 161 145 142 146 143 142 156
237 235 238 231 217 197 177 173 168 162 166 170 172 167 180 184 170 173 192 189 184 175 174 176 163 144 121 109 116 131 134 146 146 141 161 174 154 145 144 135 136 136 139
228 231 229 170 162 189 178 170 170 177 188 184 175 175 177 163 171 193 205 186 177 169 169 158 155 159 153 145 139 164 156 164 179 189 161 171 150 148 149 146 153 161 159
238 253 161 190 221 225 201 183 183 191 191 178 177 178 179 176 191 195 192 181 176 167 155 149 161 174 179 173 184 180 180 185 199 191 181 182 150 159 159 153 157 163 156
222 206 231 245 250 233 206 196 201 195 186 175 179 186 196 195 198 186 172 173 171 168 176 182 187 198 198 185 175 162 173 188 194 187 188 185 175 181 176 169 170 153 141
231 222 223 240 264 275 247 207 208 193 181 174 190 204 201 184 178 173 173 168 167 173 175 165 184 205 197 201 179 177 179 177 190 194 202 198 181 187 181 175 173 160 153
234 245 250 238 249 251 242 227 221 203 180 187 213 212 184 173 173 180 173 164 165 166 164 178 189 208 239 221 184 165 171 178 182 218 255 227 181 195 190 185 180 172 170
230 235 239 226 231 240 227 216 220 193 176 191 205 199 192 192 188 188 170 178 186 174 186 198 199 228 247 234 209 183 167 173 194 210 212 212 216 187 183 177 171 182 184
230 238 244 238 234 246 236 211 173 160 166 177 191 188 187 197 191 178 184 200 194 191 203 211 216 233 257 236 216 193 177 177 202 216 211 202 216 197 159 155 155 187 211
228 229 232 230 212 240 219 173 166 168 174 198 197 193 184 188 185 185 197 200 192 208 214 209 208 221 257 237 209 182 175 197 230 239 220 200 217 212 165 155 169 204 262
243 239 224 182 194 245 192 166 185 191 214 223 215 202 192 192 197 202 203 201 199 215 210 217 221 222 243 245 212 182 178 204 235 253 245 219 211 207 184 180 182 202 232
265 261 172 208 237 231 167 182 211 226 236 234 218 200 199 205 205 204 201 195 196 194 205 224 248 244 248 250 226 191 185 206 219 231 245 241 217 207 199 195 203 212 202
296 225 204 253 252 208 175 199 238 247 233 192 200 208 211 214 204 192 197 187 179 184 204 221 265 276 267 254 238 224 221 208 208 227 234 231 213 211 208 207 215 197 172
224 232 213 257 277 228 196 216 247 233 184 176 212 221 215 212 194 188 191 184 182 191 206 209 236 268 276 265 259 244 236 224 219 228 224 221 211 206 212 212 207 186 175
250 239 211 252 284 271 242 237 245 183 167 194 233 235 214 222 207 199 195 192 200 205 210 216 234 251 261 261 258 254 247 235 236 237 231 213 196 187 203 212 215 211 201
256 230 216 237 263 268 266 266 242 180 185 208 232 236 214 208 207 214 215 213 217 211 209 216 214 220 243 254 244 220 229 220 210 168 136 133 173 193 220 233 232 223 212
241 233 240 247 267 276 283 286 252 193 185 212 235 235 215 207 200 205 266 293 252 260 249 235 219 234 244 252 233 230 226 197 169 135 173 209 218 221 222 227 235 230 228
Height
1521 1522 1523 1524 1525 1527 1528 1528 1529 1530 1531 1531 1532 1533 1533 1534 1535 1536 1536 1536 1536 1537 1537 1537 1538 1538 1538 1539 1539 1539 1539 1539 1540 1540 1540 1540 1540 1540 1540 1540 1540 1539 1539
1519 1520 1522 1523 1524 1525 1526 1527 1528 1529 1530 1531 1532 1533 1534 1535 1535 1536 1536 1536 1537 1537 1537 1538 1538 1538 1539 1539 1539 1540 1540 1540 1540 1540 1540 1540 1542 1540 1540 1540 1540 1540 1539
1518 1519 1520 1521 1523 1524 1525 1526 1527 1528 1529 1530 1531 1532 1533 1534 1535 1535 1536 1536 1537 1537 1538 1538 1538 1539 1539 1539 1540 1540 1540 1540 1541 1541 1541 1541 1541 1541 1541 1540 1540 1540 1540
1517 1518 1519 1520 1521 1522 1524 1525 1526 1527 1528 1529 1530 1531 1532 1533 1534 1535 1535 1536 1537 1537 1538 1538 1538 1539 1539 1539 1540 1540 1540 1540 1540 1540 1540 1541 1541 1541 1541 1541 1541 1540 1540
1516 1517 1518 1519 1520 1521 1522 1524 1525 1526 1527 1528 1529 1530 1531 1532 1533 1534 1535 1536 1536 1537 1537 1538 1538 1539 1539 1539 1539 1540 1540 1540 1540 1540 1540 1540 1540 1540 1541 1540 1541 1540 1540
1515 1516 1517 1518 1519 1520 1521 1523 1524 1525 1526 1527 1528 1529 1530 1531 1532 1533 1534 1535 1536 1536 1537 1537 1538 1538 1538 1539 1539 1539 1539 1539 1539 1539 1539 1539 1539 1539 1540 1539 1539 1539 1540
1514 1515 1515 1516 1517 1518 1519 1521 1522 1523 1525 1526 1527 1528 1529 1530 1531 1532 1533 1533 1534 1535 1535 1536 1536 1537 1537 1538 1538 1538 1538 1538 1538 1539 1539 1539 1539 1539 1539 1539 1539 1539 1539
1513 1513 1514 1515 1516 1517 1518 1519 1520 1522 1523 1524 1526 1527 1528 1529 1530 1531 1532 1532 1533 1533 1534 1535 1535 1535 1536 1536 1536 1536 1537 1537 1537 1537 1537 1537 1537 1537 1538 1538 1538 1538 1539
1512 1512 1513 1513 1514 1515 1517 1518 1519 1520 1522 1523 1525 1526 1527 1528 1529 1530 1530 1531 1532 1532 1533 1533 1534 1534 1534 1534 1534 1535 1535 1535 1535 1536 1536 1536 1536 1536 1536 1537 1537 1538 1537
1511 1511 1511 1512 1513 1514 1515 1516 1518 1519 1520 1522 1523 1524 1525 1526 1527 1528 1528 1529 1530 1531 1531 1532 1532 1532 1532 1532 1532 1533 1533 1533 1534 1534 1534 1534 1534 1535 1535 1535 1536 1536 1537
1509 1509 1510 1510 1511 1512 1513 1514 1516 1517 1518 1520 1521 1522 1523 1524 1525 1526 1526 1527 1528 1529 1529 1530 1530 1530 1530 1530 1530 1531 1531 1531 1532 1532 1532 1532 1533 1533 1533 1534 1534 1535 1535
1508 1508 1509 1509 1510 1510 1511 1512 1513 1515 1516 1517 1519 1520 1521 1522 1523 1523 1524 1525 1526 1527 1527 1528 1528 1528 1528 1528 1529 1529 1529 1529 1529 1530 1530 1531 1531 1531 1532 1532 1533 1533 1533
1506 1507 1507 1508 1508 1509 1509 1510 1511 1512 1514 1515 1516 1517 1518 1519 1520 1521 1522 1523 1524 1524 1525 1526 1526 1526 1526 1527 1527 1527 1527 1527 1527 1528 1528 1529 1529 1530 1530 1530 1531 1531 1532
1505 1505 1506 1506 1506 1506 1507 1507 1508 1509 1511 1511 1513 1514 1515 1516 1518 1518 1519 1520 1521 1522 1523 1523 1524 1524 1524 1525 1525 1525 1525 1525 1526 1526 1526 1527 1527 1528 1528 1528 1529 1529 1530
1504 1504 1504 1505 1505 1505 1505 1505 1505 1506 1507 1508 1510 1511 1512 1514 1515 1516 1517 1518 1518 1519 1520 1521 1521 1522 1522 1522 1522 1523 1523 1523 1523 1524 1524 1525 1525 1526 1526 1527 1527 1527 1528
1502 1503 1503 1503 1503 1503 1503 1503 1503 1504 1504 1505 1507 1508 1510 1511 1512 1513 1514 1515 1516 1516 1517 1518 1518 1519 1519 1520 1520 1520 1520 1521 1521 1521 1522 1523 1523 1524 1524 1525 1525 1526 1526
1501 1501 1501 1501 1502 1502 1502 1501 1501 1502 1502 1503 1504 1505 1507 1508 1509 1511 1512 1513 1513 1514 1514 1515 1515 1516 1517 1517 1517 1518 1518 1518 1518 1519 1519 1520 1521 1521 1522 1522 1523 1523 1523
1499 1500 1500 1500 1500 1500 1500 1500 1500 1500 1500 1501 1502 1503 1504 1505 1507 1508 1509 1510 1511 1511 1512 1512 1513 1513 1514 1514 1514 1515 1515 1515 1516 1516 1517 1517 1518 1518 1519 1519 1520 1520 1520
1498 1498 1498 1498 1498 1498 1498 1498 1498 1498 1498 1498 1499 1500 1501 1502 1503 1504 1506 1507 1508 1508 1509 1509 1510 1510 1511 1512 1512 1512 1512 1513 1513 1514 1514 1514 1515 1515 1516 1516 1516 1516 1517
1496 1496 1496 1496 1496 1497 1497 1496 1496 1496 1496 1496 1497 1498 1499 1500 1500 1502 1503 1504 1505 1505 1506 1506 1507 1507 1508 1509 1509 1509 1509 1509 1510 1510 1511 1511 1512 1512 1512 1513 1513 1513 1513
1493 1493 1493 1493 1494 1494 1494 1494 1494 1493 1494 1494 1495 1495 1496 1497 1498 1499 1500 1501 1501 1502 1503 1503 1504 1504 1504 1505 1506 1506 1506 1506 1506 1507 1507 1508 1508 1508 1509 1509 1509 1510 1510
1491 1491 1491 1491 1491 1491 1491 1491 1491 1492 1492 1492 1492 1492 1493 1494 1494 1495 1496 1497 1498 1498 1499 1499 1500 1500 1501 1502 1502 1502 1503 1503 1503 1503 1503 1504 1504 1505 1505 1506 1506 1506 1507
1489 1489 1488 1488 1488 1489 1489 1488 1489 1489 1489 1489 1489 1489 1490 1490 1491 1491 1492 1493 1493 1494 1494 1495 1495 1496 1497 1498 1498 1498 1499 1499 1499 1499 1499 1500 1500 1501 1501 1502 1502 1502 1502
1486 1486 1486 1485 1486 1486 1486 1486 1486 1486 1486 1486 1486 1486 1487 1487 1487 1488 1488 1489 1489 1490 1490 1490 1491 1492 1492 1493 1493 1494 1494 1494 1494 1494 1495 1495 1496 1496 1497 1497 1498 1498 1498
1483 1483 1483 1483 1483 1483 1483 1483 1484 1484 1483 1483 1483 1483 1483 1483 1484 1484 1484 1484 1485 1486 1486 1487 1487 1487 1487 1488 1489 1489 1489 1489 1490 1490 1490 1490 1491 1491 1492 1493 1493 1494 1494
1480 1481 1481 1480 1480 1480 1480 1480 1480 1480 1480 1479 1479 1479 1479 1479 1480 1480 1480 1481 1482 1482 1483 1483 1483 1483 1484 1484 1484 1485 1485 1485 1485 1485 1484 1485 1485 1486 1487 1487 1488 1489 1489